Simultaneous Nadir Overpasses (SNOs) Predictions

Prediction of SNOs between GOES-16 and METOP-C Satellite Orbit:

Table of predicted SNOs for the next 14.0 days since TLE Epoch: 9/5/2023
Index Date Time (GOES-16) GOES-16 Lat,Lon METOP-C Lat,Lon Distance(km) Time Diff (sec)
1 09/05/2023 14:37:41 -0.04, -75.22 0.45, -77.35 242.91 80
2 09/06/2023 14:19:41 -0.04, -75.22 -0.67, -72.35 326.85 80
3 09/08/2023 02:35:59 0.04, -75.21 -0.36, -76.94 197.71 80
4 09/09/2023 02:17:58 0.04, -75.21 0.76, -71.94 372.30 80
5 09/10/2023 14:34:09 -0.04, -75.24 0.22, -76.51 144.44 80
6 09/11/2023 14:16:07 -0.04, -75.25 -0.85, -71.50 426.05 80
7 09/13/2023 02:32:27 0.04, -75.25 -0.13, -76.10 97.23 80
8 09/14/2023 02:14:25 0.04, -75.26 0.94, -71.10 473.74 80
9 09/15/2023 14:30:35 -0.04, -75.30 0.02, -75.66 41.33 80
10 09/18/2023 02:31:33 0.04, -75.33 0.08, -75.26 8.37 80
